Погода в Крыму

Россия / Брянская область     52°49′33″N   32°27′47″E
темп.,
°C
ветер,
м/с
пор.,
м/с
влажн.,
%
обл.,
%
осадки,
мм/ч
давл.,
гПа
погр.,
м
25 мая, ср
ср2500:00+9зсз36875 0.0 101477
03:00+9сз348692 0.0 101573
06:00+10з4983100 0.0 1014186
09:00+14зсз467555 0.0 1015400
12:00+18сз57560 0.8 10151586
15:00+18зсз5757100 2.3 10151621
18:00+19зсз2460100 0.1 10141222
21:00+12ююз227853 0.2 101510
26 мая, чт
чт2600:00+11ююз337930 0.0 101431
03:00+10ю4107953 0.0 1013154
06:00+11ююв51376100 0.0 1010281
09:00+11ююв71596100 3.4 1006626
12:00+11ююз61297100 8.9 1005797
15:00+14зсз1018806 9.1 10061577
18:00+16зсз815694 0.3 10061739
21:00+12з6148697 0.5 1007440
27 мая, пт
пт2700:00+12з7159097 0.6 1006615
03:00+10з5119477 1.4 1007427
06:00+9з8149474 0.3 1008787
09:00+10з8128283 0.3 1009937
12:00+15з9115946 0.1 10091958
15:00+16з8126555 0.1 10081854
18:00+12зсз4887100 0.4 1007370
21:00+10ю41398100 4.1 1004543
28 мая, сб
сб2800:00+12з81393100 5.8 1003860
03:00+9з7139362 6.0 1005765
06:00+8зюз6129527 0.0 1006595
09:00+11зюз711765 0.0 10061198
12:00+13зюз1013638 0.7 10071840
15:00+14з8135615 0.8 10082239
18:00+13з612675 0.3 10091578
21:00+9юз358146 0.3 101062
29 мая, вс
вс2900:00+7юз4985100 0.0 1011177
03:00+6зюз411940 0.1 1012268
06:00+6юз38940 0.0 1013245
09:00+11юз46730 0.0 1014717
12:00+13юз6868100 0.1 10151335
15:00+15юз686441 0.6 10151466
18:00+14юз587579 0.8 1015770
21:00+10ююз34855 0.9 101760